SCP
0 0 0 0 0 0 -0 -0 0 -0 0 0 0 0 -0 -0 -0 -0 -0 -0 -0 -0 -0 0 0 -0 -0 -0 0 0 0 0 0 0 -0 0 -0 0 0 0 0 0 0 -0 0 -0 -0 -0 -0
0 0 0 0 0 -0 -0 0 -0 -0 -0 -0 -0 0 -0 -0 -0 -0 -0 -0 -0 -0 -0 0 0 -0 -0 -0 0 0 0 0 0 0 0 0 -0 0 -0 -0 0 -0 -0 -0 -0 -0 -0 -0 0
0 0 0 0 0 0 -0 0 -0 -0 -0 0 0 -0 0 0 0 0 -0 0 -0 -0 -0 -0 -0 -0 -0 0 0 0 0 0 0 0 0 0 0 0 -0 -0 -0 -0 -0 -0 -0 -0 -0 -0 -0
0 0 0 0 0 0 -0 -0 -0 -0 -0 0 0 0 -0 -0 -0 0 0 0 0 0 -0 0 0 0 0 0 0 0 0 0 0 0 0 0 0 0 0 0 -0 -0 -0 0 -0 -0 -0 0 -0
-0 0 0 0 0 -0 -0 -0 -0 -0 0 0 0 -0 -0 -0 0 0 0 0 0 -0 -0 0 0 0 0 0 0 0 0 0 0 0 0 0 0 0 0 -0 -0 -0 0 0 0 -0 0 -0 0
0 0 0 -0 0 0 -0 0 0 0 -0 0 -0 -0 -0 0 0 0 0 0 0 -0 -0 -0 -0 0 -0 0 0 0 0 0 0 0 0 0 0 0 0 0 0 0 0 0 0 0 0 0 0
0 -0 -0 -0 -0 -0 -0 0 0 -0 -0 0 -0 -0 -0 -0 0 0 0 -0 0 0 -0 -0 -0 0 -0 0 -0 -0 0 -0 0 0 0 0 0 0 0 0 0 0 0 0 0 0 0 0 0
0 -0 -0 -0 -0 -0 -0 0 -0 0 -0 0 -0 -0 -0 -0 0 0 0 0 -0 0 -0 -0 -0 0 0 0 0 -0 -0 0 0 0 0 0 0 0 0 0 0 0 0 0 0 0 0 0 0
0 0 -0 -0 -0 -0 -0 -0 -0 -0 -0 0 0 -0 -0 -0 0 0 0 0 0 0 0 -0 -0 0 0 -0 -0 -0 0 0 0 0 0 0 0 0 0 0 0 0 0 0 0 1 1 1 0
0 0 0 0 0 -0 -0 0 -0 -0 -0 -0 -0 -0 -0 -0 0 0 0 -0 0 0 0 -0 -0 -0 0 0 0 -0 0 0 0 0 0 0 0 0 0 0 0 0 0 0 1 1 0 0 0
0 0 0 0 0 0 0 0 0 -0 -0 -0 -0 -0 -0 -0 0 0 0 -0 -0 0 0 -0 -0 0 0 -0 0 0 0 0 0 0 0 0 0 0 0 0 0 0 0 0 0 0 0 0 0
-0 0 0 0 0 0 0 0 -0 -0 -0 -0 -0 -0 -0 -0 0 0 0 0 -0 0 0 0 0 0 0 0 0 0 0 0 0 0 0 0 0 0 0 0 0 0 0 0 0 0 0 0 0
-0 0 0 0 0 0 0 -0 0 -0 -0 -0 -0 -0 -0 -0 0 -0 0 -0 -0 -0 -0 0 0 0 0 0 0 0 0 0 0 0 0 0 0 0 0 0 0 0 0 0 0 0 0 0 0
0 0 -0 0 0 0 0 0 0 0 -0 -0 -0 -0 -0 -0 0 -0 -0 -0 0 -0 -0 -0 0 0 0 0 0 0 0 0 0 0 0 0 0 0 0 0 0 0 0 0 0 0 0 0 0
-0 -0 -0 0 0 0 0 0 0 0 -0 -0 -0 -0 -0 -0 -0 -0 0 -0 -0 -0 -0 -0 0 0 0 0 0 0 0 0 0 0 0 0 0 0 1 0 0 0 0 0 0 0 0 0 0
0 -0 -0 0 0 0 0 0 0 0 -0 -0 -0 0 0 -0 0 -0 -0 -0 -0 -0 -0 -0 0 0 0 0 0 0 0 0 0 0 0 0 0 0 1 0 0 1 0 0 0 0 0 0 0
-0 0 -0 -0 0 0 0 0 0 0 -0 -0 0 0 0 0 0 -0 -0 -0 -0 0 -0 -0 0 -0 0 0 0 0 0 0 0 0 0 0 0 0 0 0 0 1 0 0 0 0 0 0 0
0 0 -0 -0 -0 -0 0 0 0 0 -0 -0 0 0 -0 -0 0 -0 -0 0 -0 -0 -0 0 0 0 0 0 0 0 0 0 0 0 0 0 0 0 0 0 0 1 0 0 0 0 0 0 0
0 0 0 -0 -0 -0 -0 0 0 0 0 0 -0 -0 -0 0 -0 0 -0 -0 0 -0 -0 0 0 0 0 0 0 0 0 0 0 0 0 0 0 0 0 0 0 0 0 0 0 0 0 0 -0
0 0 0 0 -0 -0 -0 -0 -0 0 0 -0 0 -0 -0 0 -0 0 0 0 0 0 0 -0 0 0 0 0 0 0 0 0 0 0 0 0 0 0 0 0 0 0 0 0 0 0 0 0 -0
0 0 0 0 -0 -0 -0 -0 -0 0 0 -0 0 0 -0 -0 -0 0 0 0 0 0 0 0 0 0 0 0 0 0 0 0 0 0 0 0 0 0 0 0 0 0 0 0 0 0 0 -0 0
0 0 0 -0 -0 0 -0 -0 -0 -0 -0 0 -0 0 0 -0 0 0 0 0 0 -0 0 0 -0 -0 0 0 0 0 0 -0 0 0 0 0 0 0 0 0 0 0 0 0 0 0 -0 -0 0
0 0 0 -0 0 0 0 -0 -0 -0 -0 -0 -0 -0 0 -0 0 0 0 0 0 -0 -0 0 0 0 0 0 0 0 0 0 -0 0 0 0 0 0 0 0 0 0 0 0 0 0 0 0 -0
0 0 -0 -0 -0 0 0 -0 -0 -0 0 -0 -0 -0 -0 0 -0 0 0 0 0 0 -0 -0 0 0 -0 -0 0 0 0 0 0 0 0 -0 -0 -0 0 0 0 0 0 0 0 0 0 -0 -0
-0 0 -0 0 0 0 0 0 0 0 0 0 0 -0 -0 0 0 0 -0 0 -0 0 0 0 -0 0 0 -0 0 0 0 0 0 0 0 0 0 0 0 0 0 0 0 0 0 0 0 0 0
0 0 0 0 0 0 0 0 0 0 0 -0 -0 0 -0 0 0 0 0 0 0 0 0 0 0 -0 -0 -0 -0 0 0 0 0 0 0 0 0 0 0 0 0 0 0 0 0 -0 0 0 0
-0 0 0 -0 -0 0 0 0 0 0 0 -0 -0 0 -0 0 0 0 0 0 0 0 0 0 0 0 0 0 -0 0 0 0 0 0 0 0 0 0 0 0 0 0 0 0 0 -0 -0 0 0
0 0 0 0 0 0 0 0 0 0 0 0 0 0 -0 0 0 0 0 0 0 0 0 -0 0 0 0 0 0 0 0 0 -0 -0 -0 0 0 0 0 0 0 0 0 0 0 0 0 0 0
0 0 0 0 0 0 0 0 0 0 0 0 0 -0 0 0 0 0 0 0 0 0 0 0 0 0 0 -0 0 0 0 0 0 -0 -0 0 0 0 -0 -0 -0 0 0 0 0 0 0 0 0
0 0 0 0 0 0 0 0 0 0 0 0 0 0 -0 0 0 0 0 0 0 0 0 0 0 0 0 0 0 0 0 0 0 0 0 0 0 0 0 0 0 0 -0 0 0 0 0 0 0
Wind_Speed_500mb
2 2 2 3 10 6 14 13 7 17 13 12 12 10 28 23 16 13 23 24 29 29 22 18 15 15 15 21 20 26 33 45 47 40 37 30 33 33 35 34 34 35 36 38 37 36 36 33 32
6 3 2 6 10 13 15 10 13 16 21 25 22 11 19 28 31 35 28 26 28 27 23 27 23 17 16 20 25 32 36 41 44 36 32 31 31 31 31 35 34 37 36 34 35 36 33 30 29
3 3 7 6 5 15 18 13 15 22 25 12 11 20 14 19 18 19 33 32 30 31 29 38 35 28 27 30 37 47 49 52 46 34 30 28 28 27 29 33 32 33 35 36 36 35 34 34 31
6 1 6 10 16 15 21 18 25 26 18 8 21 23 23 21 17 30 36 37 36 36 34 39 35 43 44 45 52 48 54 49 44 29 28 28 26 27 29 32 33 31 31 30 31 33 33 33 34
2 6 6 11 14 22 20 19 19 17 12 16 11 20 26 23 36 38 41 39 39 35 33 36 45 39 45 45 45 41 43 42 40 31 24 24 23 25 28 29 29 29 31 29 31 33 34 33 33
7 6 13 11 20 18 16 13 11 14 18 19 34 38 20 31 35 36 39 37 34 32 28 26 28 46 52 49 54 45 38 36 30 22 24 23 22 25 27 27 28 31 28 30 31 31 31 33 33
6 3 7 18 23 18 17 11 12 14 19 20 29 30 28 35 34 34 35 34 30 26 29 27 29 31 24 38 37 39 35 30 25 25 25 25 25 26 27 28 29 28 29 28 29 26 28 29 31
4 1 13 12 21 20 18 16 20 16 17 19 26 16 40 42 37 35 31 30 28 25 25 26 32 32 23 27 33 30 25 26 25 28 28 28 28 32 31 25 26 26 26 26 24 24 26 28 28
5 7 8 15 20 18 24 24 14 17 29 14 8 36 47 45 40 36 33 30 29 27 27 25 27 30 25 21 25 28 27 25 29 29 33 33 22 24 25 29 28 27 25 23 22 24 24 26 25
6 4 5 7 12 21 21 19 21 23 21 17 32 39 47 44 39 37 33 30 27 26 24 28 26 26 24 20 21 22 24 24 30 30 27 22 26 27 26 31 31 28 23 21 21 21 22 25 10
7 6 12 14 15 9 25 19 14 19 11 26 42 53 49 42 36 33 31 30 27 25 23 24 24 25 24 23 18 19 19 21 28 29 21 23 21 21 21 18 18 15 19 14 16 14 13 13 16
17 14 10 9 10 10 16 11 22 14 12 33 38 43 46 41 35 32 30 29 28 24 22 21 21 22 24 20 18 20 21 22 19 20 24 21 16 19 20 17 18 19 16 17 17 14 19 17 21
27 15 15 10 16 15 8 8 14 17 30 37 38 37 39 36 32 29 27 27 27 24 19 18 19 19 21 24 23 20 20 20 18 15 20 20 17 17 15 16 16 16 16 14 14 15 17 16 13
24 22 25 11 4 12 6 5 13 16 35 37 36 32 33 32 31 28 29 28 27 24 21 18 18 17 19 20 22 18 19 19 16 13 16 15 15 15 13 12 13 11 11 7 9 11 12 10 9
38 26 25 18 16 3 16 10 12 18 33 35 32 29 28 29 28 27 27 27 27 24 23 22 20 18 21 19 19 18 18 16 14 11 12 13 15 14 16 10 11 9 9 9 7 6 8 4 7
15 12 12 13 9 13 9 2 6 3 24 32 31 30 27 26 26 25 25 26 26 25 24 24 22 21 23 16 21 18 16 12 12 11 10 13 14 13 14 12 10 10 11 11 7 7 5 0 5
15 7 14 10 12 9 3 5 10 8 12 30 33 32 30 27 26 25 26 27 27 25 25 25 25 24 20 21 22 17 15 9 10 13 11 13 12 14 15 11 12 14 12 13 11 7 6 5 7
4 11 7 11 15 5 10 11 11 8 20 28 36 34 32 30 29 27 27 27 27 25 23 26 23 23 22 19 22 15 9 9 12 9 12 14 13 14 15 10 10 13 10 11 11 11 9 6 10
7 10 13 15 14 8 7 2 5 17 23 33 35 39 38 32 29 28 28 27 27 28 27 27 26 26 21 19 20 17 12 11 10 7 19 10 13 11 13 7 9 10 7 7 12 9 11 9 14
7 7 15 11 8 8 12 15 15 19 15 35 37 39 37 31 32 31 31 30 28 29 31 30 27 27 25 22 21 17 15 14 12 12 13 9 12 12 5 9 7 8 6 8 6 6 5 9 13
14 11 6 7 15 7 8 10 19 24 27 37 31 35 35 38 38 36 35 34 32 29 33 34 30 28 28 26 22 25 20 16 15 13 11 7 12 10 8 5 3 7 10 7 9 7 6 7 13
18 5 8 10 15 6 14 2 20 14 24 40 46 40 40 43 41 39 39 38 36 32 31 32 34 34 33 35 25 23 18 16 19 16 13 9 9 10 6 4 3 1 4 7 11 10 6 8 10
3 7 5 14 15 6 16 7 3 18 17 36 49 55 46 49 45 41 40 39 37 35 33 31 33 38 32 36 30 22 24 21 19 18 14 13 12 10 8 10 5 2 3 9 6 8 9 11 12
16 18 15 13 14 16 10 14 12 19 32 28 52 55 55 52 49 47 39 37 39 37 35 33 34 36 40 40 34 28 29 23 25 19 18 13 10 10 10 10 13 10 6 6 4 8 10 7 10
31 28 17 17 10 14 11 11 5 11 23 48 56 66 56 51 50 45 44 42 41 42 40 37 35 35 34 39 32 29 26 23 27 21 21 20 14 12 16 13 13 8 11 7 7 11 10 10 8
36 35 19 13 12 5 10 7 7 9 9 33 54 51 55 46 49 46 47 47 53 43 43 40 38 37 34 36 36 35 29 22 23 22 20 19 17 16 19 14 13 13 12 12 10 9 8 10 8
33 25 19 24 12 13 10 10 12 3 13 7 37 45 49 50 43 45 46 48 46 46 45 44 40 38 39 36 37 37 33 29 28 25 25 19 21 16 20 20 17 15 16 17 16 10 12 12 11
27 20 17 15 8 16 12 3 7 13 15 8 19 46 48 53 52 39 43 45 47 46 43 42 42 40 38 39 36 33 29 30 30 32 31 24 22 22 23 21 21 22 20 18 18 13 13 13 9
18 21 22 5 16 7 3 8 14 14 17 14 8 28 39 49 48 42 41 44 45 43 42 41 41 39 37 36 35 33 31 29 31 30 30 32 28 28 30 26 23 21 21 21 22 20 19 16 14
22 22 30 13 4 3 8 11 14 10 15 18 4 29 38 25 38 45 38 40 44 48 46 43 41 39 36 34 35 34 32 31 31 33 31 28 31 31 30 27 27 25 24 22 23 25 18 20 17
Wind_Direction_500mb
116 26 233 257 229 220 113 96 71 125 122 71 92 18 73 30 9 68 123 115 113 115 110 116 127 129 131 104 116 124 118 111 103 102 99 108 109 106 108 113 109 105 103 101 94 92 88 87 86
190 239 301 260 245 151 101 108 128 119 99 111 92 109 50 71 81 111 118 120 118 108 108 105 102 115 129 139 126 127 118 111 109 108 114 115 110 106 108 114 109 106 97 95 93 89 84 84 88
199 201 270 286 293 63 98 110 119 123 126 123 101 62 45 91 91 105 126 121 114 108 110 104 88 100 121 123 124 125 115 109 110 116 113 113 112 111 110 114 109 104 100 98 90 87 79 79 82
275 327 229 249 98 79 95 113 125 134 112 93 109 85 87 91 97 126 121 121 116 109 114 106 90 97 105 119 110 117 116 111 113 112 106 108 108 108 112 114 106 105 99 97 93 85 82 82 80
340 258 201 135 95 99 95 112 146 139 108 124 119 108 98 96 117 119 121 121 117 117 115 113 90 101 103 112 114 107 104 100 104 108 114 109 104 106 110 115 111 105 104 100 95 89 83 79 77
239 284 191 153 117 115 101 109 121 105 120 113 121 115 94 125 123 124 125 124 121 122 125 122 108 92 101 94 101 103 106 116 116 116 113 105 107 103 109 114 114 112 107 102 97 88 79 78 73
269 303 194 139 131 127 124 114 96 116 133 119 138 117 128 139 136 131 128 127 125 122 121 126 120 114 100 92 106 103 103 99 112 117 113 108 103 104 106 110 115 111 108 105 97 85 77 70 65
235 120 185 142 157 121 128 94 107 103 89 134 136 146 152 150 139 138 132 129 129 128 126 122 130 124 116 106 98 107 114 119 116 114 107 101 99 92 92 87 112 110 111 104 92 79 71 68 61
198 202 203 155 159 135 136 121 89 113 124 128 120 141 147 149 144 142 138 138 133 131 125 125 123 133 131 105 114 113 114 115 109 105 107 90 97 91 87 100 104 108 104 95 84 75 68 80 69
262 134 102 8 80 141 154 135 119 138 122 123 130 130 146 149 150 150 147 144 140 135 129 130 130 135 132 140 127 117 115 118 116 114 103 92 98 98 91 92 95 94 92 78 67 62 67 58 76
54 86 128 89 90 159 142 135 128 152 151 147 149 146 151 155 159 159 155 150 148 142 138 136 139 133 140 143 136 121 119 114 121 110 96 96 88 93 97 88 87 82 72 83 68 63 75 90 94
104 59 43 56 55 107 144 115 140 55 77 142 148 153 153 159 163 166 162 159 157 152 148 145 138 133 137 133 127 122 123 125 124 113 99 92 88 81 90 98 89 86 88 78 84 85 94 91 90
107 107 106 85 55 78 98 140 126 81 123 137 144 155 158 162 166 168 167 164 161 160 159 154 148 137 133 120 129 130 122 130 129 110 109 105 88 83 94 96 98 96 83 80 82 87 105 87 86
133 142 133 145 115 346 329 97 146 114 138 142 150 159 162 165 168 169 171 171 171 168 170 169 156 149 137 139 128 130 130 134 130 116 119 113 94 97 91 91 85 90 81 70 89 106 116 110 78
138 158 134 137 129 82 323 188 137 144 157 154 159 162 162 167 170 172 174 176 177 175 178 175 165 161 148 138 127 136 130 141 139 133 127 118 104 102 88 96 79 84 60 58 68 123 155 102 50
150 169 164 54 175 24 341 153 256 315 173 173 169 168 166 167 171 167 170 171 173 170 175 171 165 165 155 162 142 142 142 148 152 151 132 124 110 96 74 94 90 83 70 66 92 118 140 342 12
187 154 125 125 62 104 28 155 305 253 224 195 183 178 176 171 173 170 171 168 170 164 166 170 168 168 170 170 157 154 139 128 146 148 139 135 117 117 89 105 100 81 71 63 74 87 89 34 358
117 135 133 138 160 133 181 221 315 276 222 218 195 185 185 182 178 174 172 176 178 177 173 171 168 177 169 174 167 162 148 135 137 138 150 146 141 124 98 106 110 80 76 58 69 74 57 25 2
121 90 94 106 143 170 199 256 300 168 207 230 220 195 192 191 176 177 176 179 184 186 184 182 177 184 175 176 173 176 179 161 148 152 160 152 158 148 119 98 85 81 74 83 52 48 38 8 359
213 190 100 122 156 226 166 198 176 196 205 218 219 208 194 199 182 183 183 184 186 188 191 190 190 196 189 180 173 182 178 156 176 162 172 169 165 162 108 116 85 95 47 48 31 26 359 354 349
220 266 122 349 161 172 193 182 194 186 201 217 222 220 198 204 194 190 189 188 188 189 190 193 195 198 191 185 187 183 182 182 178 176 176 184 181 178 172 156 120 57 65 4 19 4 332 343 348
210 186 216 166 204 277 207 270 220 195 195 204 221 224 219 201 206 197 192 192 193 192 189 191 193 196 195 191 191 188 192 190 182 170 180 176 182 196 199 183 173 263 36 10 355 2 351 353 355
287 191 180 185 247 262 180 250 125 204 197 206 213 222 217 208 206 203 198 194 194 192 193 191 193 199 195 201 187 208 193 203 196 186 206 187 211 191 204 220 229 322 24 297 0 11 26 16 28
151 188 206 219 251 249 119 224 172 188 225 197 219 216 219 216 204 206 199 195 194 196 193 195 195 200 207 206 209 204 206 203 204 204 213 202 208 222 235 216 243 242 250 300 302 302 333 337 3
199 206 228 218 212 263 136 204 275 216 202 203 206 212 211 209 207 205 198 200 197 197 196 197 199 202 206 211 208 206 208 213 214 223 212 211 219 227 226 225 252 253 262 262 271 292 301 321 320
212 239 260 264 233 266 151 224 109 344 276 198 217 197 202 206 210 203 201 200 200 198 199 198 202 204 206 204 206 209 214 221 215 224 214 217 233 235 228 217 222 239 254 250 263 284 272 300 312
200 241 314 263 219 258 149 133 91 89 71 165 185 179 200 205 202 205 204 203 203 202 201 202 204 206 210 210 213 221 228 215 215 220 222 239 234 235 236 238 238 234 239 251 254 271 267 267 296
275 239 218 227 238 260 138 186 84 8 357 319 168 183 203 207 213 218 211 207 204 204 205 204 206 209 213 214 217 223 224 229 228 230 230 229 230 242 234 246 249 246 252 250 249 255 276 269 275
196 234 249 26 278 287 249 101 34 9 351 332 193 180 178 200 217 219 210 204 204 202 204 208 207 209 212 216 218 221 225 228 230 230 235 243 248 248 242 247 243 245 240 248 256 246 251 260 262
253 242 216 257 326 48 339 84 5 28 3 358 17 171 160 173 229 224 222 206 198 203 197 206 206 209 211 214 217 223 228 230 230 233 238 245 253 249 248 250 250 244 246 255 250 250 250 267 266
Wind_Speed_850mb
2 2 2 3 10 6 14 13 7 17 13 12 12 10 28 23 16 13 23 24 29 29 22 18 15 15 15 21 20 26 33 45 47 40 37 30 33 33 35 34 34 35 36 38 37 36 36 33 32
6 3 2 6 10 13 15 10 13 16 21 25 22 11 19 28 31 35 28 26 28 27 23 27 23 17 16 20 25 32 36 41 44 36 32 31 31 31 31 35 34 37 36 34 35 36 33 30 29
3 3 7 6 5 15 18 13 15 22 25 12 11 20 14 19 18 19 33 32 30 31 29 38 35 28 27 30 37 47 49 52 46 34 30 28 28 27 29 33 32 33 35 36 36 35 34 34 31
6 1 6 10 16 15 21 18 25 26 18 8 21 23 23 21 17 30 36 37 36 36 34 39 35 43 44 45 52 48 54 49 44 29 28 28 26 27 29 32 33 31 31 30 31 33 33 33 34
2 6 6 11 14 22 20 19 19 17 12 16 11 20 26 23 36 38 41 39 39 35 33 36 45 39 45 45 45 41 43 42 40 31 24 24 23 25 28 29 29 29 31 29 31 33 34 33 33
7 6 13 11 20 18 16 13 11 14 18 19 34 38 20 31 35 36 39 37 34 32 28 26 28 46 52 49 54 45 38 36 30 22 24 23 22 25 27 27 28 31 28 30 31 31 31 33 33
6 3 7 18 23 18 17 11 12 14 19 20 29 30 28 35 34 34 35 34 30 26 29 27 29 31 24 38 37 39 35 30 25 25 25 25 25 26 27 28 29 28 29 28 29 26 28 29 31
4 1 13 12 21 20 18 16 20 16 17 19 26 16 40 42 37 35 31 30 28 25 25 26 32 32 23 27 33 30 25 26 25 28 28 28 28 32 31 25 26 26 26 26 24 24 26 28 28
5 7 8 15 20 18 24 24 14 17 29 14 8 36 47 45 40 36 33 30 29 27 27 25 27 30 25 21 25 28 27 25 29 29 33 33 22 24 25 29 28 27 25 23 22 24 24 26 25
6 4 5 7 12 21 21 19 21 23 21 17 32 39 47 44 39 37 33 30 27 26 24 28 26 26 24 20 21 22 24 24 30 30 27 22 26 27 26 31 31 28 23 21 21 21 22 25 10
7 6 12 14 15 9 25 19 14 19 11 26 42 53 49 42 36 33 31 30 27 25 23 24 24 25 24 23 18 19 19 21 28 29 21 23 21 21 21 18 18 15 19 14 16 14 13 13 16
17 14 10 9 10 10 16 11 22 14 12 33 38 43 46 41 35 32 30 29 28 24 22 21 21 22 24 20 18 20 21 22 19 20 24 21 16 19 20 17 18 19 16 17 17 14 19 17 21
27 15 15 10 16 15 8 8 14 17 30 37 38 37 39 36 32 29 27 27 27 24 19 18 19 19 21 24 23 20 20 20 18 15 20 20 17 17 15 16 16 16 16 14 14 15 17 16 13
24 22 25 11 4 12 6 5 13 16 35 37 36 32 33 32 31 28 29 28 27 24 21 18 18 17 19 20 22 18 19 19 16 13 16 15 15 15 13 12 13 11 11 7 9 11 12 10 9
38 26 25 18 16 3 16 10 12 18 33 35 32 29 28 29 28 27 27 27 27 24 23 22 20 18 21 19 19 18 18 16 14 11 12 13 15 14 16 10 11 9 9 9 7 6 8 4 7
15 12 12 13 9 13 9 2 6 3 24 32 31 30 27 26 26 25 25 26 26 25 24 24 22 21 23 16 21 18 16 12 12 11 10 13 14 13 14 12 10 10 11 11 7 7 5 0 5
15 7 14 10 12 9 3 5 10 8 12 30 33 32 30 27 26 25 26 27 27 25 25 25 25 24 20 21 22 17 15 9 10 13 11 13 12 14 15 11 12 14 12 13 11 7 6 5 7
4 11 7 11 15 5 10 11 11 8 20 28 36 34 32 30 29 27 27 27 27 25 23 26 23 23 22 19 22 15 9 9 12 9 12 14 13 14 15 10 10 13 10 11 11 11 9 6 10
7 10 13 15 14 8 7 2 5 17 23 33 35 39 38 32 29 28 28 27 27 28 27 27 26 26 21 19 20 17 12 11 10 7 19 10 13 11 13 7 9 10 7 7 12 9 11 9 14
7 7 15 11 8 8 12 15 15 19 15 35 37 39 37 31 32 31 31 30 28 29 31 30 27 27 25 22 21 17 15 14 12 12 13 9 12 12 5 9 7 8 6 8 6 6 5 9 13
14 11 6 7 15 7 8 10 19 24 27 37 31 35 35 38 38 36 35 34 32 29 33 34 30 28 28 26 22 25 20 16 15 13 11 7 12 10 8 5 3 7 10 7 9 7 6 7 13
18 5 8 10 15 6 14 2 20 14 24 40 46 40 40 43 41 39 39 38 36 32 31 32 34 34 33 35 25 23 18 16 19 16 13 9 9 10 6 4 3 1 4 7 11 10 6 8 10
3 7 5 14 15 6 16 7 3 18 17 36 49 55 46 49 45 41 40 39 37 35 33 31 33 38 32 36 30 22 24 21 19 18 14 13 12 10 8 10 5 2 3 9 6 8 9 11 12
16 18 15 13 14 16 10 14 12 19 32 28 52 55 55 52 49 47 39 37 39 37 35 33 34 36 40 40 34 28 29 23 25 19 18 13 10 10 10 10 13 10 6 6 4 8 10 7 10
31 28 17 17 10 14 11 11 5 11 23 48 56 66 56 51 50 45 44 42 41 42 40 37 35 35 34 39 32 29 26 23 27 21 21 20 14 12 16 13 13 8 11 7 7 11 10 10 8
36 35 19 13 12 5 10 7 7 9 9 33 54 51 55 46 49 46 47 47 53 43 43 40 38 37 34 36 36 35 29 22 23 22 20 19 17 16 19 14 13 13 12 12 10 9 8 10 8
33 25 19 24 12 13 10 10 12 3 13 7 37 45 49 50 43 45 46 48 46 46 45 44 40 38 39 36 37 37 33 29 28 25 25 19 21 16 20 20 17 15 16 17 16 10 12 12 11
27 20 17 15 8 16 12 3 7 13 15 8 19 46 48 53 52 39 43 45 47 46 43 42 42 40 38 39 36 33 29 30 30 32 31 24 22 22 23 21 21 22 20 18 18 13 13 13 9
18 21 22 5 16 7 3 8 14 14 17 14 8 28 39 49 48 42 41 44 45 43 42 41 41 39 37 36 35 33 31 29 31 30 30 32 28 28 30 26 23 21 21 21 22 20 19 16 14
22 22 30 13 4 3 8 11 14 10 15 18 4 29 38 25 38 45 38 40 44 48 46 43 41 39 36 34 35 34 32 31 31 33 31 28 31 31 30 27 27 25 24 22 23 25 18 20 17
Wind_Direction_850mb
116 26 233 257 229 220 113 96 71 125 122 71 92 18 73 30 9 68 123 115 113 115 110 116 127 129 131 104 116 124 118 111 103 102 99 108 109 106 108 113 109 105 103 101 94 92 88 87 86
190 239 301 260 245 151 101 108 128 119 99 111 92 109 50 71 81 111 118 120 118 108 108 105 102 115 129 139 126 127 118 111 109 108 114 115 110 106 108 114 109 106 97 95 93 89 84 84 88
199 201 270 286 293 63 98 110 119 123 126 123 101 62 45 91 91 105 126 121 114 108 110 104 88 100 121 123 124 125 115 109 110 116 113 113 112 111 110 114 109 104 100 98 90 87 79 79 82
275 327 229 249 98 79 95 113 125 134 112 93 109 85 87 91 97 126 121 121 116 109 114 106 90 97 105 119 110 117 116 111 113 112 106 108 108 108 112 114 106 105 99 97 93 85 82 82 80
340 258 201 135 95 99 95 112 146 139 108 124 119 108 98 96 117 119 121 121 117 117 115 113 90 101 103 112 114 107 104 100 104 108 114 109 104 106 110 115 111 105 104 100 95 89 83 79 77
239 284 191 153 117 115 101 109 121 105 120 113 121 115 94 125 123 124 125 124 121 122 125 122 108 92 101 94 101 103 106 116 116 116 113 105 107 103 109 114 114 112 107 102 97 88 79 78 73
269 303 194 139 131 127 124 114 96 116 133 119 138 117 128 139 136 131 128 127 125 122 121 126 120 114 100 92 106 103 103 99 112 117 113 108 103 104 106 110 115 111 108 105 97 85 77 70 65
235 120 185 142 157 121 128 94 107 103 89 134 136 146 152 150 139 138 132 129 129 128 126 122 130 124 116 106 98 107 114 119 116 114 107 101 99 92 92 87 112 110 111 104 92 79 71 68 61
198 202 203 155 159 135 136 121 89 113 124 128 120 141 147 149 144 142 138 138 133 131 125 125 123 133 131 105 114 113 114 115 109 105 107 90 97 91 87 100 104 108 104 95 84 75 68 80 69
262 134 102 8 80 141 154 135 119 138 122 123 130 130 146 149 150 150 147 144 140 135 129 130 130 135 132 140 127 117 115 118 116 114 103 92 98 98 91 92 95 94 92 78 67 62 67 58 76
54 86 128 89 90 159 142 135 128 152 151 147 149 146 151 155 159 159 155 150 148 142 138 136 139 133 140 143 136 121 119 114 121 110 96 96 88 93 97 88 87 82 72 83 68 63 75 90 94
104 59 43 56 55 107 144 115 140 55 77 142 148 153 153 159 163 166 162 159 157 152 148 145 138 133 137 133 127 122 123 125 124 113 99 92 88 81 90 98 89 86 88 78 84 85 94 91 90
107 107 106 85 55 78 98 140 126 81 123 137 144 155 158 162 166 168 167 164 161 160 159 154 148 137 133 120 129 130 122 130 129 110 109 105 88 83 94 96 98 96 83 80 82 87 105 87 86
133 142 133 145 115 346 329 97 146 114 138 142 150 159 162 165 168 169 171 171 171 168 170 169 156 149 137 139 128 130 130 134 130 116 119 113 94 97 91 91 85 90 81 70 89 106 116 110 78
138 158 134 137 129 82 323 188 137 144 157 154 159 162 162 167 170 172 174 176 177 175 178 175 165 161 148 138 127 136 130 141 139 133 127 118 104 102 88 96 79 84 60 58 68 123 155 102 50
150 169 164 54 175 24 341 153 256 315 173 173 169 168 166 167 171 167 170 171 173 170 175 171 165 165 155 162 142 142 142 148 152 151 132 124 110 96 74 94 90 83 70 66 92 118 140 342 12
187 154 125 125 62 104 28 155 305 253 224 195 183 178 176 171 173 170 171 168 170 164 166 170 168 168 170 170 157 154 139 128 146 148 139 135 117 117 89 105 100 81 71 63 74 87 89 34 358
117 135 133 138 160 133 181 221 315 276 222 218 195 185 185 182 178 174 172 176 178 177 173 171 168 177 169 174 167 162 148 135 137 138 150 146 141 124 98 106 110 80 76 58 69 74 57 25 2
121 90 94 106 143 170 199 256 300 168 207 230 220 195 192 191 176 177 176 179 184 186 184 182 177 184 175 176 173 176 179 161 148 152 160 152 158 148 119 98 85 81 74 83 52 48 38 8 359
213 190 100 122 156 226 166 198 176 196 205 218 219 208 194 199 182 183 183 184 186 188 191 190 190 196 189 180 173 182 178 156 176 162 172 169 165 162 108 116 85 95 47 48 31 26 359 354 349
220 266 122 349 161 172 193 182 194 186 201 217 222 220 198 204 194 190 189 188 188 189 190 193 195 198 191 185 187 183 182 182 178 176 176 184 181 178 172 156 120 57 65 4 19 4 332 343 348
210 186 216 166 204 277 207 270 220 195 195 204 221 224 219 201 206 197 192 192 193 192 189 191 193 196 195 191 191 188 192 190 182 170 180 176 182 196 199 183 173 263 36 10 355 2 351 353 355
287 191 180 185 247 262 180 250 125 204 197 206 213 222 217 208 206 203 198 194 194 192 193 191 193 199 195 201 187 208 193 203 196 186 206 187 211 191 204 220 229 322 24 297 0 11 26 16 28
151 188 206 219 251 249 119 224 172 188 225 197 219 216 219 216 204 206 199 195 194 196 193 195 195 200 207 206 209 204 206 203 204 204 213 202 208 222 235 216 243 242 250 300 302 302 333 337 3
199 206 228 218 212 263 136 204 275 216 202 203 206 212 211 209 207 205 198 200 197 197 196 197 199 202 206 211 208 206 208 213 214 223 212 211 219 227 226 225 252 253 262 262 271 292 301 321 320
212 239 260 264 233 266 151 224 109 344 276 198 217 197 202 206 210 203 201 200 200 198 199 198 202 204 206 204 206 209 214 221 215 224 214 217 233 235 228 217 222 239 254 250 263 284 272 300 312
200 241 314 263 219 258 149 133 91 89 71 165 185 179 200 205 202 205 204 203 203 202 201 202 204 206 210 210 213 221 228 215 215 220 222 239 234 235 236 238 238 234 239 251 254 271 267 267 296
275 239 218 227 238 260 138 186 84 8 357 319 168 183 203 207 213 218 211 207 204 204 205 204 206 209 213 214 217 223 224 229 228 230 230 229 230 242 234 246 249 246 252 250 249 255 276 269 275
196 234 249 26 278 287 249 101 34 9 351 332 193 180 178 200 217 219 210 204 204 202 204 208 207 209 212 216 218 221 225 228 230 230 235 243 248 248 242 247 243 245 240 248 256 246 251 260 262
253 242 216 257 326 48 339 84 5 28 3 358 17 171 160 173 229 224 222 206 198 203 197 206 206 209 211 214 217 223 228 230 230 233 238 245 253 249 248 250 250 244 246 255 250 250 250 267 266